TimeEDT,TemperatureF,Dew PointF,Humidity,Sea Level PressureIn,VisibilityMPH,Wind Direction,Wind SpeedMPH,Gust SpeedMPH,PrecipitationIn,Events,Conditions,WindDirDegrees,DateUTC
12:53 AM,55.9,53.1,90,30.35,8.0,Calm,Calm,-,N/A,,Clear,0,2013-08-25 04:53:00
1:53 AM,54.0,52.0,93,30.35,6.0,SW,3.5,-,N/A,,Clear,220,2013-08-25 05:53:00
2:53 AM,55.9,54.0,93,30.34,7.0,SSW,3.5,-,0.01,,Clear,200,2013-08-25 06:53:00
3:53 AM,54.0,53.1,97,30.35,6.0,SW,3.5,-,N/A,,Clear,230,2013-08-25 07:53:00
4:53 AM,51.1,48.9,92,30.36,6.0,Calm,Calm,-,N/A,,Clear,0,2013-08-25 08:53:00
5:53 AM,52.0,50.0,93,30.37,7.0,Calm,Calm,-,N/A,,Clear,0,2013-08-25 09:53:00
6:53 AM,55.9,53.1,90,30.37,7.0,SW,3.5,-,N/A,,Clear,230,2013-08-25 10:53:00
7:53 AM,59.0,55.0,87,30.38,10.0,SW,8.1,-,N/A,,Clear,220,2013-08-25 11:53:00
8:53 AM,64.0,54.0,70,30.37,10.0,SSW,11.5,-,N/A,,Clear,210,2013-08-25 12:53:00
9:53 AM,70.0,55.9,61,30.36,10.0,SSW,5.8,-,N/A,,Clear,210,2013-08-25 13:53:00
10:53 AM,75.0,57.9,55,30.34,10.0,SSW,6.9,-,N/A,,Clear,210,2013-08-25 14:53:00
11:53 AM,79.0,57.0,47,30.33,10.0,South,8.1,-,N/A,,Partly Cloudy,190,2013-08-25 15:53:00
12:53 PM,80.1,52.0,38,30.30,10.0,SW,9.2,18.4,N/A,,Scattered Clouds,220,2013-08-25 16:53:00
1:53 PM,82.0,53.1,37,30.28,10.0,SSW,9.2,19.6,N/A,,Mostly Cloudy,210,2013-08-25 17:53:00
2:53 PM,81.0,53.1,38,30.28,10.0,SW,6.9,-,N/A,,Partly Cloudy,230,2013-08-25 18:53:00
3:53 PM,81.0,53.1,38,30.25,10.0,SW,9.2,-,N/A,,Partly Cloudy,230,2013-08-25 19:53:00
4:53 PM,81.0,54.0,39,30.24,10.0,Variable,5.8,-,N/A,,Scattered Clouds,0,2013-08-25 20:53:00
5:53 PM,79.0,55.9,45,30.22,10.0,Calm,Calm,-,N/A,,Clear,0,2013-08-25 21:53:00
6:53 PM,77.0,57.9,52,30.20,9.0,Calm,Calm,-,N/A,,Clear,0,2013-08-25 22:53:00
7:53 PM,73.9,57.0,55,30.17,10.0,SSW,3.5,-,N/A,,Clear,200,2013-08-25 23:53:00
8:53 PM,68.0,60.1,76,30.18,8.0,South,5.8,-,N/A,,Clear,170,2013-08-26 00:53:00
9:53 PM,71.1,61.0,70,30.16,7.0,SSW,5.8,-,N/A,,Clear,200,2013-08-26 01:53:00
10:53 PM,70.0,59.0,68,30.18,8.0,SSW,4.6,-,N/A,,Partly Cloudy,210,2013-08-26 02:53:00
11:53 PM,68.0,60.1,76,30.22,10.0,Calm,Calm,-,N/A,,Mostly Cloudy,0,2013-08-26 03:53:00